Change the Weather History Date:

Sunday, November 11, 2012

  Actual Average Record
Temperature  
Mean Temperature 19 °F 32 °F  
Max Temperature 24 °F 42 °F 68 °F (1937)
Min Temperature 13 °F 21 °F -8 °F (1966)
Degree Days  
Heating Degree Days 46 33  
Month to date heating degree days 334 334  
Since 1 July heating degree days 1216 1225  
Cooling Degree Days 0 0  
Month to date cooling degree days 0 0  
Year to date cooling degree days 764 525  
Moisture  
Dew Point 11 °F    
Average Humidity 73    
Maximum Humidity 84    
Minimum Humidity 62    
Precipitation  
Precipitation T in 0.03 in 0.50 in (1915)
Month to date precipitation 0.37 0.32  
Year to date precipitation 13.88 20.79  
Snow  
Snow 0.20 in - - ()
Month to date snowfall 0.6  
Since 1 July snowfall 0.6  
Snow Depth T in    
Sea Level Pressure  
Sea Level Pressure 29.92 in    
Wind  
Wind Speed 18 mph (WNW)    
Max Wind Speed 25 mph    
Max Gust Speed 32 mph    
Visibility 9 miles    
Events Snow    
T = Trace of Precipitation, MM = Missing Value Source: NWS Daily Summary

Daily Weather History Graph

Daily Weather History Graph

Search for Another Location

Airport or City:

Trip Planner

Search our weather history database for the weather conditions in past years. The results will help you decide how hot, cold, wet, or windy it might be!

Date:

Astronomy

Nov. 11, 2012 Rise Set
Actual Time 7:27 AM CST 5:07 PM CST
Civil Twilight 6:55 AM CST 5:38 PM CST
Nautical Twilight 6:20 AM CST 6:14 PM CST
Astronomical Twilight 5:45 AM CST 6:49 PM CST
Moon 4:37 AM CST (11/11) 3:36 PM CST (11/11)
Length of Visible Light 10h 43m
Length of Day
9h 39m
Waning Crescent, 7% of the Moon is Illuminated
Nov 11
Waning Crescent
Nov 13
New
Nov 20
First Quarter
Nov 28
Full
Dec 6
Last Quarter

Hourly Weather History & Observations

Time (CST) Temp. Windchill Dew Point Humidity Pressure Visibility Wind Dir Wind Speed Gust Speed Precip Events Conditions
12:53 AM 23.0 °F 8.3 °F 17.1 °F 78% 29.80 in 10.0 mi WNW 19.6 mph 26.5 mph N/A   Overcast
1:53 AM 21.9 °F 7.8 °F 16.0 °F 78% 29.80 in 10.0 mi NW 17.3 mph 27.6 mph 0.00 in Snow Light Snow
2:39 AM 21.2 °F 6.8 °F 17.6 °F 86% 29.77 in 3.0 mi WNW 17.3 mph - 0.00 in Snow Light Snow
2:49 AM 21.2 °F 6.8 °F 15.8 °F 80% 29.78 in 2.0 mi WNW 17.3 mph 24.2 mph 0.00 in Snow Light Snow
2:53 AM 21.0 °F 7.6 °F 17.1 °F 85% 29.82 in 2.0 mi WNW 15.0 mph - 0.00 in Snow Light Snow
3:11 AM 21.2 °F 5.6 °F 15.8 °F 80% 29.79 in 3.0 mi WNW 20.7 mph 27.6 mph 0.00 in Snow Light Snow
3:18 AM 19.4 °F 3.6 °F 15.8 °F 86% 29.79 in 4.0 mi WNW 19.6 mph 27.6 mph 0.00 in Snow Light Snow
3:53 AM 19.9 °F 5.7 °F 14.0 °F 78% 29.86 in 9.0 mi WNW 16.1 mph 28.8 mph 0.00 in   Overcast
4:53 AM 18.0 °F 3.1 °F 10.9 °F 74% 29.89 in 10.0 mi WNW 16.1 mph - N/A   Overcast
5:53 AM 16.0 °F 0.6 °F 9.0 °F 74% 29.91 in 10.0 mi WNW 16.1 mph - N/A   Scattered Clouds
6:53 AM 12.9 °F -3.9 °F 7.0 °F 77% 29.92 in 10.0 mi WNW 17.3 mph 24.2 mph N/A   Clear
7:53 AM 12.9 °F -3.4 °F 6.1 °F 74% 29.94 in 10.0 mi WNW 16.1 mph 25.3 mph N/A   Clear
8:53 AM 14.0 °F -2.5 °F 6.1 °F 71% 29.96 in 10.0 mi West 17.3 mph 25.3 mph N/A   Clear
10:53 AM 18.0 °F 2.6 °F 9.0 °F 68% 29.96 in 10.0 mi WNW 17.3 mph 26.5 mph N/A   Clear
11:48 AM 17.6 °F -0.3 °F 8.6 °F 68% 29.88 in 10.0 mi WNW 24.2 mph 29.9 mph N/A   Mostly Cloudy
11:53 AM 17.1 °F 0.6 °F 9.0 °F 71% 29.95 in 10.0 mi WNW 19.6 mph 29.9 mph N/A   Scattered Clouds
12:19 PM 17.6 °F -0.3 °F 8.6 °F 68% 29.88 in 10.0 mi WNW 24.2 mph 29.9 mph N/A   Mostly Cloudy
12:34 PM 17.6 °F 0.1 °F 8.6 °F 68% 29.88 in 10.0 mi West 23.0 mph 28.8 mph N/A   Scattered Clouds
12:53 PM 18.0 °F 0.9 °F 9.0 °F 68% 29.94 in 10.0 mi West 21.9 mph 28.8 mph N/A   Scattered Clouds
1:05 PM 19.4 °F 3.2 °F 10.4 °F 68% 29.89 in 10.0 mi WNW 20.7 mph 27.6 mph N/A   Mostly Cloudy
1:53 PM 19.0 °F 2.7 °F 9.0 °F 65% 29.95 in 10.0 mi West 20.7 mph 26.5 mph N/A   Overcast
2:53 PM 18.0 °F 2.2 °F 9.0 °F 68% 29.96 in 10.0 mi West 18.4 mph 29.9 mph N/A   Overcast
3:53 PM 18.0 °F 2.6 °F 9.0 °F 68% 29.98 in 10.0 mi WNW 17.3 mph 25.3 mph N/A   Overcast
4:53 PM 18.0 °F 1.7 °F 10.9 °F 74% 29.99 in 7.0 mi WNW 19.6 mph 24.2 mph 0.00 in Snow Light Snow
5:53 PM 17.1 °F 4.3 °F 9.0 °F 71% 30.00 in 10.0 mi West 11.5 mph - 0.00 in   Scattered Clouds
6:53 PM 16.0 °F 0.6 °F 8.1 °F 71% 30.01 in 10.0 mi West 16.1 mph - N/A   Clear
7:53 PM 17.1 °F 2.0 °F 9.0 °F 71% 30.01 in 10.0 mi West 16.1 mph - N/A   Overcast
8:53 PM 19.0 °F 4.5 °F 12.0 °F 74% 30.01 in 10.0 mi West 16.1 mph 21.9 mph N/A   Overcast
9:53 PM 19.9 °F 4.3 °F 12.0 °F 71% 30.02 in 10.0 mi WNW 19.6 mph 28.8 mph N/A   Overcast
10:53 PM 19.9 °F 4.8 °F 12.0 °F 71% 30.02 in 9.0 mi West 18.4 mph 27.6 mph 0.00 in   Overcast
11:53 PM 19.4 °F 3.6 °F 12.2 °F 74% 29.96 in 10.0 mi West 19.6 mph 28.8 mph N/A   Overcast